YAOGAN-26 (40362 NORAD) Tracking and Keplerian Element Data

This shows tracking and keplerian element data for the satellite.

Feedback or suggestion? Click here.




ElementValue
Catalog40362
NameYAOGAN-26
Epoch Orbit56267
Epoch Day35.33705112
Epoch Year2025
RAAN49.6078
Inclination97.0717
Eccentricity0.0008152
Argument of Perigee59.7528
Mean Anonmoly300.4518
Mean Motion15.27865955
Decay Rate0.00019059
L11 40362U 14088A 25035.33705112 .00019059 00000+0 70144-3 0 9995
L22 40362 97.0717 49.6078 0008152 59.7528 300.4518 15.27865955562674



Live tracking and technical data element details for YAOGAN-26 (NORAD 40362). YAOGAN-26 can be tracked NOW for your location showing map with azimuth and elevation plus other details from your city location.







IsCatalogInMostPopularTable: catalog: 40362, numindb: 494
Update: records affected: 1



GetName: 40362 YAOGAN-26

Hit Count: updated at: Thu, 22 May 2025 03:40:42 GMT